ONEWEB-0096 (45439 NORAD) Tracking and Keplerian Element Data

This shows tracking and keplerian element data for the satellite.

Feedback or suggestion? Click here.




ElementValue
Catalog45439
NameONEWEB-0096
Epoch Orbit3216
Epoch Day297.91667824
Epoch Year2020
RAAN71.7717
Inclination87.7928
Eccentricity0.0020726
Argument of Perigee241.5171
Mean Anonmoly10.7353
Mean Motion13.97977111
Decay Rate-0.00017998
L11 45439U 20020R 20297.91667824 -.00017998 00000-0 -12718-1 0 9998
L22 45439 87.7928 71.7717 0020726 241.5171 10.7353 13.97977111 32163

Live tracking and technical data element details for ONEWEB-0096 (NORAD 45439). ONEWEB-0096 can be tracked NOW for your location showing map with azimuth and elevation plus other details from your city location.

Track the satellite on the map from your city or location and see movement details for azimuth, elevation, latitude, longitude, range, height, and movement on the map or in text.







IsCatalogInMostPopularTable: catalog: 45439, numindb: 46
Update: records affected: 1



GetName: 45439 ONEWEB-0096

Hit Count: updated at: Sun, 25 Oct 2020 00:03:51 GMT